Weather observations for the past three days for
Lompoc, Lompoc Airport
Imperial (Metric)
Date Time (pdt) Wind (mph) Vis. (mi.) Weather Sky Cond. Temperature (ºF) Relative Humidity Wind Chill (°F) Heat Index (°F) Pressure Precipitation (in)
Air Dwpt 6 hour altimeter (in) sea level (mb) 1 hr 3 hr 6 hr
Max. Min.
20 00:56 Calm 7.00 Overcast OVC004 55.9 55.9 100% 29.96 1014.7
19 23:56 Calm 2.50 Fog/Mist OVC004 55.9 55.9 100% 29.98 1015.1
19 22:56 NW 3 8.00 Overcast OVC004 55.9 55.9 66 55.9 100% 29.98 1015.3
19 21:56 Calm 5.00 Fog/Mist OVC004 55.9 55.9 100% 29.98 1015.2
19 20:56 W 7 8.00 Overcast OVC004 57 57 100% 29.98 1015.1
19 19:56 W 6 10.00 Fair CLR 57.9 57.9 100% 29.97 1015.0
19 18:56 W 12 10.00 Fair CLR 61 57 87% 29.96 1014.5
19 17:56 W 14 10.00 Fair CLR 63 57 81% 29.96 1014.6
19 16:56 W 12 G 17 10.00 Fair CLR 64.9 57 69.1 64.9 76% 29.97 1014.9
19 15:56 W 13 10.00 Fair CLR 66.9 57 71% 29.98 1015.2
19 14:56 W 15 10.00 Fair CLR 66.9 57 71% 29.99 1015.7
19 13:56 W 16 10.00 Fair CLR 66.9 57 71% 30 1015.9
19 12:56 W 16 10.00 Fair CLR 66.9 57 71% 30 1015.9
19 11:56 W 15 10.00 Fair CLR 68 55.9 65% 30.01 1016.1
19 10:56 W 12 10.00 Fair CLR 68 57.9 70 54 70% 30 1016.0
19 09:56 Vrbl 3 9.00 Fair CLR 66 57 73% 30 1016.1
19 08:56 Calm 10.00 Partly Cloudy SCT005 61 57 87% 30.01 1016.2
19 06:56 E 6 6.00 Fog/Mist OVC003 55 55 100% 30.01 1016.1
19 05:56 Calm 2.50 Fog/Mist OVC003 54 54 100% 30 1015.8
19 04:56 Calm 6.00 Fog/Mist OVC003 54 54 55.9 54 100% 30 1015.8
19 03:56 Calm 8.00 Overcast OVC003 55 55 100% 30 1015.8
19 02:56 Calm 10.00 Overcast OVC005 55 55 100% 29.99 1015.6
19 01:56 W 3 9.00 Overcast OVC005 55 55 100% 30.01 1016.1
19 00:56 Calm 6.00 Fog/Mist OVC005 55 55 100% 30.02 1016.6
18 23:56 W 5 10.00 Overcast OVC005 55.9 55.9 100% 30.03 1017.0
18 22:56 NW 3 7.00 Overcast OVC005 55.9 55.9 63 55.9 100% 30.04 1017.3
18 21:56 W 5 10.00 Overcast OVC005 55.9 55.9 100% 30.04 1017.3
18 20:56 W 7 10.00 Overcast OVC005 57 57 100% 30.03 1016.9
18 19:56 NW 9 10.00 Overcast OVC007 57.9 57.9 100% 30.02 1016.7
18 18:56 W 9 10.00 Partly Cloudy SCT009 60.1 57.9 93% 30.01 1016.2
18 17:56 W 12 G 17 10.00 Fair CLR 63 57 81% 30 1015.8
18 16:56 W 15 G 18 10.00 Fair CLR 64.9 57 68 64.9 76% 30 1016.0
18 15:56 W 12 G 18 10.00 Fair CLR 66 57 73% 30.01 1016.3
18 14:56 W 16 10.00 Fair CLR 66 57 73% 30.02 1016.5
18 13:56 W 14 10.00 Fair CLR 66.9 57 71% 30.02 1016.5
18 12:56 W 16 10.00 Fair CLR 66.9 55.9 68% 30.02 1016.5
18 11:56 W 15 10.00 Fair CLR 66.9 57 71% 30.01 1016.3
18 10:56 W 10 10.00 Fair CLR 68 59 69.1 55 73% 30 1016.0
18 09:56 NW 3 10.00 Fair CLR 64 57 78% 30 1016.0
18 08:56 SE 5 10.00 Mostly Cloudy BKN007 61 57 87% 30 1015.8
18 07:56 Vrbl 3 10.00 Overcast OVC003 55.9 55.9 100% 29.99 1015.7
18 06:56 Calm 5.00 Fog/Mist OVC003 55 55 100% 29.98 1015.3
18 05:56 Vrbl 3 10.00 Overcast OVC005 55 55 100% 29.98 1015.0
18 04:56 W 6 5.00 Fog/Mist OVC005 55 55 57 55 100% 29.97 1015.0
18 03:56 W 3 5.00 Fog/Mist OVC005 55.9 55.9 100% 29.96 1014.7
18 02:56 W 5 4.00 Fog/Mist OVC005 55.9 55.9 100% 29.97 1014.8
18 01:56 NW 3 4.00 Fog/Mist OVC003 55.9 55.9 100% 29.97 1015.0
18 00:56 NW 7 5.00 Fog/Mist OVC003 55.9 55.9 100% 29.97 1015.1
17 23:56 NW 6 4.00 Fog/Mist OVC003 55.9 55.9 100% 29.98 1015.4
17 22:56 NW 5 5.00 Fog/Mist OVC005 55.9 55.9 64.9 55.9 100% 29.99 1015.5
17 21:56 NW 7 10.00 Overcast OVC005 57 57 100% 30 1015.6
17 20:56 W 8 10.00 Overcast OVC005 57 57 100% 29.99 1015.6
17 19:56 NW 7 10.00 Overcast OVC007 57.9 57.9 100% 29.98 1015.3
17 18:56 W 13 10.00 Overcast OVC009 60.1 57.9 93% 29.97 1015.1
17 17:56 W 14 10.00 A Few Clouds FEW011 63 57.9 84% 29.98 1015.1
17 16:56 W 16 G 21 10.00 Fair CLR 64.9 57 69.1 63 76% 29.98 1015.1
17 15:56 W 13 G 18 10.00 Fair CLR 66.9 57 71% 29.99 1015.6
17 14:56 W 12 G 17 10.00 Fair CLR 66.9 57 71% 30.01 1016.2
17 13:56 W 16 G 21 10.00 Fair CLR 68 57 68% 30.03 1016.8
17 12:56 W 12 10.00 Fair CLR 66.9 55.9 68% 30.04 1017.1
17 11:56 W 14 10.00 Fair CLR 64 55.9 75% 30.05 1017.4
17 10:56 W 12 10.00 Overcast OVC013 63 55.9 64 48.9 78% 30.04 1017.3
17 09:56 W 6 10.00 Overcast OVC011 61 55.9 84% 30.04 1017.2
17 08:56 W 6 9.00 Overcast OVC007 57.9 55.9 93% 30.03 1016.8
17 07:56 Calm 10.00 Overcast OVC005 55.9 55.9 100% 30.03 1016.8
17 06:56 E 5 7.00 Overcast OVC003 53.1 53.1 100% 30.03 1016.8
17 05:56 Calm 10.00 Overcast OVC005 50 50 100% 30 1015.9
17 04:56 Calm 10.00 Overcast OVC005 50 50 57 48.9 100% 30 1015.8
17 03:56 E 3 10.00 Fair CLR 50 50 100% 29.98 1015.4
17 02:56 Calm 10.00 Fair CLR 48.9 48.9 100% 29.99 1015.6
17 01:56 Calm 10.00 Fair CLR 51.1 51.1 100% 30 1015.9
Date Time (pdt) Wind (mph) Vis. (mi.) Weather Sky Cond. Air Dwpt Max. Min. Relative Humidity Wind Chill (°F) Heat Index (°F) altimeter (in) sea level (mb) 1 hr 3 hr 6 hr
6 hour
Temperature (ºF) Pressure Precipitation (in)